Regional Weather Roundup
Issued by NWS

Home | Current Version | Previous Version | Text Only | Print | Product List | Glossary Off
Versions: 1 2 3 4 5 6 7 8 9 10 11 12 13 14 15 16 17 18 19 20 21 22 23 24 25 26 27 28 29 30 31 32 33 34 35 36 37 38 39 40 41 42 43 44 45 46 47 48 49 50

000
ASUS45 KCYS 041410
RWRWY

WYOMING REGIONAL WEATHER ROUNDUP
NATIONAL WEATHER SERVICE CHEYENNE WY
800 AM MDT FRI SEP 04 2015

NOTE:  "FAIR" INDICATES FEW OR NO CLOUDS BELOW 12,000 FEET
WITH NO SIGNIFICANT WEATHER AND/OR OBSTRUCTIONS TO VISIBILITY.

WYZ001-041500-
YELLOWSTONE NATIONAL PARK

CITY           SKY/WX    TMP DP  RH WIND       PRES   REMARKS
LK YELLOWSTONE   N/A     41  39  93 NW3       30.05R
W YELLOWSTONE  NOT AVBL

$$
WYZ002>013-054>058-071-098>099-041500-
NORTHERN WYOMING

CITY           SKY/WX    TMP DP  RH WIND       PRES   REMARKS
JACKSON        MOSUNNY   46  45  93 CALM      29.98R
CODY           FAIR      50  45  81 NE7       29.97S
GREYBULL       FAIR      56  45  66 NW9       29.93R
WORLAND        FAIR      57  46  66 NE8       29.93R
SHERIDAN       FAIR      59  43  55 W8        29.95R
BUFFALO        FAIR      58  44  60 N9        29.98R
GILLETTE       FAIR      61  45  55 W9        29.93R
HULETT         FAIR      63  45  51 SW6       29.90S
NEWCASTLE      FAIR      66  43  42 MISG      29.89S

$$
WYZ014>020-022>026-101>103-041500-
CENTRAL WYOMING

CITY           SKY/WX    TMP DP  RH WIND       PRES   REMARKS
BIG PINEY      FAIR      48  35  60 CALM      30.07R
PINEDALE       FAIR      50  36  57 E3        30.08R
DUBOIS         FAIR      45  34  65 NW10      30.04S
LANDER         FAIR      60  36  40 NW6       29.93S
RIVERTON       FAIR      61  41  47 NW5       29.94S
CASPER         FAIR      66  43  43 SW6       29.97R
DOUGLAS        FAIR      58  49  72 CALM      29.96R

$$
WYZ021-027>030-104>119-041500-
SOUTHERN WYOMING

CITY           SKY/WX    TMP DP  RH WIND       PRES   REMARKS
EVANSTON       FAIR      58  30  34 S9        30.05R
KEMMERER       FAIR      55  30  38 SE6       30.07R
FORT BRIDGER   SUNNY     59  32  36 S8        30.09R
ROCK SPRINGS   FAIR      58  37  45 S5        30.07R
DIXON          FAIR      52  45  77 CALM      30.12S
RAWLINS        FAIR      63  40  42 S6        30.08R
SARATOGA       FAIR      57  43  58 SE12      30.13R
LARAMIE        FAIR      57  47  69 SW14      30.13S
CHEYENNE       FAIR      62  44  51 SW8       30.05R
TORRINGTON     FAIR      59  49  69 CALM      29.91R
PINE BLUFFS    FAIR      54  45  71 SW7       30.01R

$$


USA.gov is the U.S. government's official web portal to all federal, state and local government web resources and services.